GW5240 Weather Reports


time (UTC)temp
F
wind
direction
speed
knots
gust
knots
rain 1hr
in
rain 24hr
in
rain mn
in
humidity
%
barometer
mb
20260510082048 39 167 0.0 0.0 0.00 0.00 0.00 72 1016.1
20260510081543 39 167 0.0 0.0 0.00 0.00 0.00 72 1016.4
20260510081039 39 167 0.0 0.0 0.00 0.00 0.00 72 1016.3
20260510080538 39 167 0.0 0.0 0.00 0.00 0.00 71 1016.4
20260510080035 39 167 0.0 0.0 0.00 0.00 0.00 69 1016.2
20260510075532 39 167 0.0 0.0 0.00 0.00 0.00 69 1016.1
20260510075029 40 167 0.0 0.0 0.00 0.00 0.00 68 1016.2
20260510074527 40 167 0.0 0.0 0.00 0.00 0.00 68 1016.1
20260510074022 40 167 0.0 0.0 0.00 0.00 0.00 67 1016.1
20260510073518 40 167 0.0 0.0 0.00 0.00 0.00 67 1016.3
20260510073015 40 167 0.0 0.0 0.00 0.00 0.00 67 1016.2
20260510072512 40 167 0.0 0.0 0.00 0.00 0.00 66 1016.2
20260510072007 41 167 0.0 0.0 0.00 0.00 0.00 65 1016.0
20260510071504 40 167 0.0 0.0 0.00 0.00 0.00 65 1016.3
20260510071002 40 167 0.0 0.0 0.00 0.00 0.00 65 1016.3
20260510070459 40 167 0.0 0.0 0.00 0.00 0.00 66 1016.2
20260510065954 40 167 0.0 0.0 0.00 0.00 0.00 65 1016.2
20260510065452 40 167 0.0 0.0 0.00 0.00 0.00 64 1016.2
20260510064948 41 167 0.0 0.0 0.00 0.00 0.00 63 1016.2
20260510064445 42 167 0.0 0.0 0.00 0.00 0.00 62 1016.2
20260510063942 42 167 0.0 0.0 0.00 0.00 0.00 61 1016.3
20260510063438 43 167 0.0 0.0 0.00 0.00 0.00 60 1016.1
20260510062936 43 167 0.0 0.0 0.00 0.00 0.00 60 1016.1
20260510062430 43 167 0.0 0.0 0.00 0.00 0.00 59 1016.3
20260510061926 43 170 0.0 0.0 0.00 0.00 0.00 57 1016.1
20260510061423 43 170 0.0 0.0 0.00 0.00 0.00 57 1016.1
20260510060919 43 170 0.0 0.0 0.00 0.00 0.00 58 1016.1
20260510060416 43 170 0.0 0.0 0.00 0.00 0.00 58 1016.1
20260510055913 43 170 0.0 0.0 0.00 0.00 0.00 58 1016.1
20260510055408 43 170 0.0 0.0 0.00 0.00 0.00 58 1015.8
20260510054906 42 170 0.0 0.0 0.00 0.00 0.00 59 1016.0
20260510054401 43 170 0.0 0.0 0.00 0.00 0.00 57 1016.1
20260510053857 44 170 0.0 0.0 0.00 0.00 0.00 56 1016.1
20260510053352 44 170 0.0 0.0 0.00 0.00 0.00 56 1015.9
20260510052849 44 170 0.0 0.0 0.00 0.00 0.00 55 1015.9
20260510052345 44 170 0.0 0.0 0.00 0.00 0.00 54 1015.7
20260510051841 44 170 0.0 0.0 0.00 0.00 0.00 54 1016.0
20260510051338 45 170 0.0 0.0 0.00 0.00 0.00 53 1015.8
20260510050835 46 170 0.0 0.0 0.00 0.00 0.00 51 1015.7
20260510050331 46 170 0.0 0.0 0.00 0.00 0.00 49 1015.6
20260510045829 47 170 0.0 0.0 0.00 0.00 0.00 49 1015.7
20260510045325 47 170 0.0 0.0 0.00 0.00 0.00 48 1015.8
20260510044822 47 170 0.0 0.0 0.00 0.00 0.00 48 1015.6
20260510044319 48 170 0.0 0.0 0.00 0.00 0.00 47 1015.8
20260510043816 48 170 0.0 0.0 0.00 0.00 0.00 46 1015.8
20260510043312 48 169 0.0 0.0 0.00 0.00 0.00 45 1015.8
20260510042810 49 169 0.0 0.0 0.00 0.00 0.00 45 1015.8
20260510042307 49 165 0.0 0.0 0.00 0.00 0.00 44 1015.5
20260510041801 50 168 0.0 0.0 0.00 0.00 0.00 43 1015.7
20260510041259 50 170 0.0 0.0 0.00 0.00 0.00 42 1015.7
20260510040757 50 173 0.0 1.7 0.00 0.00 0.00 42 1015.5
20260510040253 50 183 0.9 1.7 0.00 0.00 0.00 42 1015.5
20260510035749 50 156 0.0 1.7 0.00 0.00 0.00 42 1015.4
20260510035244 51 168 0.0 0.0 0.00 0.00 0.00 42 1015.3
20260510034740 51 194 0.0 0.0 0.00 0.00 0.00 41 1015.2
20260510034238 51 208 0.0 1.7 0.00 0.00 0.00 41 1015.1
20260510033734 51 307 1.7 2.6 0.00 0.00 0.00 40 1015.2
20260510033232 51 146 0.0 0.0 0.00 0.00 0.00 40 1015.0
20260510032728 51 274 0.9 1.7 0.00 0.00 0.00 40 1014.8
20260510032224 51 183 0.9 1.7 0.00 0.00 0.00 40 1015.0
20260510031719 52 168 0.0 0.0 0.00 0.00 0.00 40 1015.0
20260510031216 52 167 0.0 0.0 0.00 0.00 0.00 40 1014.8
20260510030715 52 168 0.0 0.0 0.00 0.00 0.00 39 1014.6
20260510030213 53 222 0.0 0.0 0.00 0.00 0.00 39 1014.5
20260510025710 53 174 0.0 0.0 0.00 0.00 0.00 39 1014.4
20260510025207 52 159 0.0 0.0 0.00 0.00 0.00 39 1014.4
20260510024704 53 92 0.9 1.7 0.00 0.00 0.00 39 1014.4
20260510024200 53 247 1.7 2.6 0.00 0.00 0.00 38 1014.3
20260510023656 53 248 1.7 1.7 0.00 0.00 0.00 37 1014.2
20260510023154 53 206 0.0 0.0 0.00 0.00 0.00 37 1014.1
20260510022649 54 179 0.0 1.7 0.00 0.00 0.00 37 1014.0
20260510022144 54 168 0.9 1.7 0.00 0.00 0.00 37 1013.9
20260510021640 54 355 3.5 4.3 0.00 0.00 0.00 36 1013.7
20260510021138 54 205 1.7 1.7 0.00 0.00 0.00 36 1013.8
20260510020637 54 168 1.7 2.6 0.00 0.00 0.00 36 1013.4
20260510020133 55 179 0.0 1.7 0.00 0.00 0.00 35 1013.3
20260510015629 55 141 0.9 1.7 0.00 0.00 0.00 35 1013.3
20260510015126 55 11 1.7 2.6 0.00 0.00 0.00 35 1013.1
20260510014621 55 46 3.5 4.3 0.00 0.00 0.00 34 1013.1
20260510014119 56 265 2.6 2.6 0.00 0.00 0.00 34 1012.9
20260510013619 56 173 0.0 1.7 0.00 0.00 0.00 34 1013.1
20260510013115 56 286 3.5 6.1 0.00 0.00 0.00 33 1012.9
20260510012613 56 313 6.1 7.8 0.00 0.00 0.00 33 1012.6
20260510012111 57 132 2.6 4.3 0.00 0.00 0.00 34 1012.5
20260510011610 57 170 1.7 1.7 0.00 0.00 0.00 33 1012.5
20260510011106 57 321 0.9 1.7 0.00 0.00 0.00 34 1012.2
20260510010603 57 1 5.2 7.8 0.00 0.00 0.00 33 1012.2
20260510010100 57 306 1.7 2.6 0.00 0.00 0.00 32 1012.2
20260510005555 57 259 1.7 1.7 0.00 0.00 0.00 33 1012.3
20260510005053 58 207 0.9 1.7 0.00 0.00 0.00 32 1012.0
20260510004551 58 337 1.7 2.6 0.00 0.00 0.00 33 1012.1
20260510004049 59 264 2.6 4.3 0.00 0.00 0.00 32 1012.0
20260510003545 59 198 1.7 2.6 0.00 0.00 0.00 32 1011.9
20260510003041 59 197 1.7 2.6 0.00 0.00 0.00 32 1011.8
20260510002536 60 296 4.3 6.1 0.00 0.00 0.00 31 1011.8
20260510002034 59 64 0.9 1.7 0.00 0.00 0.00 32 1011.8
20260510001531 59 281 0.9 1.7 0.00 0.00 0.00 32 1011.9
20260510001029 59 29 3.5 4.3 0.00 0.00 0.00 32 1011.8
20260510000524 59 168 0.0 1.7 0.00 0.00 0.00 32 1011.4
20260510000021 59 141 1.7 2.6 0.00 0.00 0.00 32 1011.5
20260509235518 59 295 4.3 6.1 0.00 0.00 0.00 32 1011.5
20260509235015 59 102 0.9 1.7 0.00 0.00 0.00 32 1011.7
20260509234511 59 193 1.7 4.3 0.00 0.00 0.00 31 1011.5
20260509234009 59 176 1.7 2.6 0.00 0.00 0.00 31 1011.5
20260509233506 59 313 1.7 4.3 0.00 0.00 0.00 30 1011.1
20260509233003 59 19 4.3 6.1 0.00 0.00 0.00 30 1011.3
20260509232500 59 359 5.2 10.4 0.00 0.00 0.00 30 1011.3
20260509231956 60 101 2.6 2.6 0.00 0.00 0.00 29 1011.2
20260509231453 61 248 4.3 7.8 0.00 0.00 0.00 29 1011.2
20260509230951 61 195 4.3 8.7 0.00 0.00 0.00 30 1011.1
20260509230447 61 300 1.7 2.6 0.00 0.00 0.00 30 1011.1
20260509225943 61 290 4.3 6.1 0.00 0.00 0.00 30 1011.1
20260509225440 61 105 5.2 8.7 0.00 0.00 0.00 29 1011.0
20260509224936 61 2 4.3 7.8 0.00 0.00 0.00 29 1011.0
20260509224431 61 348 1.7 2.6 0.00 0.00 0.00 30 1010.8
20260509223929 62 33 5.2 6.1 0.00 0.00 0.00 28 1010.7
20260509223425 62 339 1.7 2.6 0.00 0.00 0.00 30 1010.6
20260509222923 62 5 4.3 6.1 0.00 0.00 0.00 30 1010.7
20260509222418 62 292 3.5 6.1 0.00 0.00 0.00 30 1010.7
20260509221914 62 12 5.2 6.1 0.00 0.00 0.00 29 1010.7
20260509221411 62 235 3.5 6.1 0.00 0.00 0.00 29 1010.5
20260509220907 63 280 4.3 6.1 0.00 0.00 0.00 29 1010.7
20260509220402 64 197 0.9 1.7 0.00 0.00 0.00 30 1010.6
20260509215858 64 353 2.6 2.6 0.00 0.00 0.00 28 1010.5
20260509215355 63 300 4.3 6.1 0.00 0.00 0.00 31 1010.3
20260509214852 62 218 1.7 2.6 0.00 0.00 0.00 31 1010.4
20260509214349 63 183 1.7 1.7 0.00 0.00 0.00 30 1010.4
20260509213846 63 292 4.3 6.1 0.00 0.00 0.00 29 1010.4
20260509213341 63 0 3.5 6.1 0.00 0.00 0.00 31 1010.3
20260509212839 63 340 6.1 8.7 0.00 0.00 0.00 29 1010.2
20260509212337 62 108 5.2 6.1 0.00 0.00 0.00 29 1010.2
20260509211832 63 316 5.2 7.8 0.00 0.00 0.00 29 1010.3
20260509211328 62 202 0.9 1.7 0.00 0.00 0.00 32 1010.3
20260509210825 62 46 5.2 6.1 0.00 0.00 0.00 29 1010.3
20260509210323 62 15 7.8 12.2 0.00 0.00 0.00 29 1010.1
20260509205823 62 249 6.1 13.0 0.00 0.00 0.00 28 1010.3
20260509205323 62 330 2.6 4.3 0.00 0.00 0.00 30 1010.0
20260509204820 63 320 7.8 10.4 0.00 0.00 0.00 28 1010.3
20260509204316 62 303 2.6 6.1 0.00 0.00 0.00 32 1010.0
20260509203812 63 273 5.2 7.8 0.00 0.00 0.00 30 1009.9
20260509203310 62 57 2.6 2.6 0.00 0.00 0.00 30 1010.1
20260509202806 62 2 5.2 6.1 0.00 0.00 0.00 30 1010.0
20260509202306 62 1 4.3 4.3 0.00 0.00 0.00 30 1010.2
20260509201800 63 123 1.7 4.3 0.00 0.00 0.00 30 1010.0
20260509201258 62 218 4.3 6.1 0.00 0.00 0.00 31 1010.1
20260509200754 63 357 1.7 2.6 0.00 0.00 0.00 30 1009.8
20260509200249 63 202 3.5 6.1 0.00 0.00 0.00 31 1009.6
20260509195747 62 357 7.0 8.7 0.00 0.00 0.00 32 1010.0
20260509195242 62 21 4.3 6.1 0.00 0.00 0.00 31 1009.8
20260509194741 62 322 1.7 4.3 0.00 0.00 0.00 32 1009.8
20260509194238 62 0 5.2 8.7 0.00 0.00 0.00 30 1009.8
20260509193735 62 46 4.3 6.1 0.00 0.00 0.00 33 1009.6
20260509193235 62 238 1.7 1.7 0.00 0.00 0.00 34 1009.9
20260509192731 62 33 3.5 4.3 0.00 0.00 0.00 32 1009.7
20260509192226 62 56 5.2 8.7 0.00 0.00 0.00 34 1009.8
20260509191722 61 285 6.1 7.8 0.00 0.00 0.00 33 1009.6
20260509191219 60 69 3.5 4.3 0.00 0.00 0.00 34 1009.4
20260509190715 61 9 6.1 7.8 0.00 0.00 0.00 35 1009.6
20260509190212 61 359 4.3 7.8 0.00 0.00 0.00 34 1009.5
20260509185710 61 319 1.7 1.7 0.00 0.00 0.00 34 1009.5
20260509185205 61 281 1.7 2.6 0.00 0.00 0.00 33 1009.3
20260509184703 61 290 4.3 4.3 0.00 0.00 0.00 33 1009.3
20260509184200 61 285 7.0 10.4 0.00 0.00 0.00 34 1009.3
20260509183656 60 12 5.2 10.4 0.00 0.00 0.00 36 1009.0
20260509183151 60 287 2.6 4.3 0.00 0.00 0.00 35 1009.4
20260509182647 61 192 3.5 4.3 0.00 0.00 0.00 35 1008.9
20260509182145 61 72 3.5 6.1 0.00 0.00 0.00 36 1008.8
20260509181643 60 264 7.8 13.0 0.00 0.00 0.00 34 1009.0
20260509181140 60 85 3.5 4.3 0.00 0.00 0.00 36 1009.3
20260509180637 60 37 2.6 4.3 0.00 0.00 0.00 34 1008.9
20260509180133 59 149 4.3 7.8 0.00 0.00 0.00 36 1009.0
20260509175629 59 274 2.6 2.6 0.00 0.00 0.00 35 1009.2
20260509175126 60 344 4.3 4.3 0.00 0.00 0.00 37 1009.0
20260509174622 60 330 6.1 7.8 0.00 0.00 0.00 35 1008.9
20260509174117 59 334 2.6 7.8 0.00 0.00 0.00 37 1008.9
20260509173613 60 331 7.8 10.4 0.00 0.00 0.00 35 1008.8
20260509173109 60 190 3.5 4.3 0.00 0.00 0.00 39 1008.8
20260509172606 59 101 2.6 4.3 0.00 0.00 0.00 38 1008.8
20260509172102 59 329 6.1 7.8 0.00 0.00 0.00 40 1008.8
20260509171558 58 212 6.1 8.7 0.00 0.00 0.00 39 1008.8
20260509171054 59 352 4.3 6.1 0.00 0.00 0.00 39 1008.6
20260509170550 59 348 4.3 7.8 0.00 0.00 0.00 39 1008.4
20260509170046 60 21 8.7 13.0 0.00 0.00 0.00 38 1008.5
20260509165545 59 328 3.5 6.1 0.00 0.00 0.00 40 1008.5
20260509165040 59 56 4.3 6.1 0.00 0.00 0.00 38 1008.4
20260509164537 59 215 7.8 12.2 0.00 0.00 0.00 37 1008.4
20260509164033 59 281 4.3 7.8 0.00 0.00 0.00 40 1008.2
20260509163531 59 332 5.2 7.8 0.00 0.00 0.00 38 1008.1
20260509163026 59 323 4.3 6.1 0.00 0.00 0.00 38 1008.1
20260509162524 59 248 5.2 10.4 0.00 0.00 0.00 39 1008.2
20260509162019 59 316 7.0 8.7 0.00 0.00 0.00 37 1008.2
20260509161516 59 324 7.8 13.0 0.00 0.00 0.00 38 1008.1
20260509161011 59 0 2.6 2.6 0.00 0.00 0.00 38 1008.0
20260509160507 59 139 1.7 1.7 0.00 0.00 0.00 41 1007.8
20260509160003 60 2 4.3 6.1 0.00 0.00 0.00 39 1007.9
20260509155459 59 279 4.3 4.3 0.00 0.00 0.00 40 1007.8
20260509154955 58 192 4.3 7.8 0.00 0.00 0.00 40 1008.0
20260509154451 58 352 6.1 7.8 0.00 0.00 0.00 40 1007.8
20260509153949 58 8 7.0 8.7 0.00 0.00 0.00 42 1007.6
20260509153446 59 1 7.8 13.0 0.00 0.00 0.00 43 1007.6
20260509152943 58 214 4.3 6.1 0.00 0.00 0.00 43 1007.5
20260509152438 58 76 5.2 7.8 0.00 0.00 0.00 43 1007.6
20260509151936 57 17 3.5 4.3 0.00 0.00 0.00 48 1007.3
20260509151432 57 352 4.3 6.1 0.00 0.00 0.00 46 1007.4
20260509150930 57 199 2.6 4.3 0.00 0.00 0.00 45 1007.3
20260509150427 57 71 7.0 10.4 0.00 0.00 0.00 45 1007.3
20260509145925 56 339 3.5 4.3 0.00 0.00 0.00 46 1007.2
20260509145425 56 275 5.2 12.2 0.00 0.00 0.00 48 1007.2
20260509144921 55 2 1.7 2.6 0.00 0.00 0.00 49 1007.1
20260509144418 56 59 5.2 8.7 0.00 0.00 0.00 48 1007.2
20260509143915 56 55 1.7 2.6 0.00 0.00 0.00 51 1007.0
20260509143413 55 319 1.7 2.6 0.00 0.00 0.00 53 1007.0
20260509142909 54 346 4.3 6.1 0.00 0.00 0.00 56 1006.9
20260509142406 53 23 6.1 8.7 0.00 0.00 0.00 58 1007.0
20260509141901 53 0 1.7 2.6 0.00 0.00 0.00 58 1006.8
20260509141358 54 46 1.7 1.7 0.00 0.00 0.00 58 1006.6
20260509140855 53 128 0.9 1.7 0.00 0.00 0.00 60 1006.7
20260509140351 54 93 3.5 7.8 0.00 0.00 0.00 57 1006.6
20260509135850 54 50 7.0 10.4 0.00 0.00 0.00 61 1006.5
20260509135347 54 180 2.6 2.6 0.00 0.00 0.00 64 1006.3
20260509134844 54 236 1.7 2.6 0.00 0.00 0.00 64 1006.2
20260509134341 53 176 0.0 1.7 0.00 0.00 0.00 68 1006.2
20260509133838 52 105 1.7 1.7 0.00 0.00 0.00 70 1006.2
20260509133335 52 325 7.0 10.4 0.00 0.00 0.00 71 1006.2
20260509132834 52 104 5.2 7.8 0.00 0.00 0.00 70 1006.1
20260509132332 52 31 1.7 2.6 0.00 0.00 0.00 70 1006.0
20260509131828 52 170 8.7 13.0 0.00 0.00 0.00 68 1005.9
20260509131325 52 80 5.2 12.2 0.00 0.00 0.00 67 1005.8
20260509130821 52 243 2.6 2.6 0.00 0.00 0.00 69 1005.6
20260509130317 52 147 1.7 1.7 0.00 0.00 0.00 68 1005.7
20260509125814 52 282 3.5 4.3 0.00 0.00 0.00 69 1005.5
20260509125310 52 342 6.1 8.7 0.00 0.00 0.00 69 1005.6
20260509124807 51 70 1.7 1.7 0.00 0.00 0.00 70 1005.4
20260509124303 51 338 3.5 4.3 0.00 0.00 0.00 72 1005.4
20260509123802 51 312 4.3 7.8 0.00 0.00 0.00 73 1005.2
20260509123259 51 24 4.3 4.3 0.00 0.00 0.00 73 1005.0
20260509122754 52 303 1.7 2.6 0.00 0.00 0.00 73 1004.9
20260509122252 52 74 2.6 2.6 0.00 0.00 0.00 73 1004.8
20260509121748 52 3 5.2 7.8 0.00 0.00 0.00 72 1004.6
20260509121245 52 112 1.7 2.6 0.00 0.00 0.00 73 1004.7
20260509120744 52 107 5.2 6.1 0.00 0.00 0.00 73 1004.4
20260509120241 52 279 1.7 4.3 0.00 0.00 0.00 74 1004.5
20260509115739 53 339 4.3 6.1 0.00 0.00 0.00 74 1004.5
20260509115235 53 3 4.3 7.8 0.00 0.00 0.00 74 1004.3
20260509114734 53 28 3.5 4.3 0.00 0.00 0.00 73 1004.2
20260509114232 53 284 1.7 2.6 0.00 0.00 0.00 72 1004.2
20260509113731 52 171 4.3 6.1 0.00 0.00 0.00 73 1003.9
20260509113228 52 46 1.7 2.6 0.00 0.00 0.00 73 1004.0
20260509112724 52 154 0.0 0.0 0.00 0.00 0.00 73 1004.0
20260509112222 52 160 0.0 0.0 0.00 0.00 0.00 72 1003.6
20260509111718 52 160 0.0 0.0 0.00 0.00 0.00 72 1003.6
20260509111215 52 166 0.0 0.0 0.00 0.00 0.00 72 1003.7
20260509110713 52 172 0.0 0.0 0.00 0.00 0.00 72 1003.2
20260509110209 52 160 0.0 0.0 0.00 0.00 0.00 71 1003.2
20260509105708 52 172 0.9 1.7 0.00 0.00 0.00 72 1003.0
20260509105204 52 172 0.0 0.0 0.00 0.00 0.00 72 1003.1
20260509104702 52 136 0.0 0.0 0.00 0.00 0.00 71 1003.2
20260509104158 52 157 0.0 0.0 0.00 0.00 0.00 70 1002.9
20260509103656 53 144 0.0 0.0 0.00 0.00 0.00 69 1003.4
20260509103154 53 193 0.0 1.7 0.00 0.00 0.00 67 1003.3
20260509102652 53 201 0.9 1.7 0.00 0.00 0.00 65 1003.1
20260509102148 53 163 0.0 0.0 0.00 0.00 0.00 65 1003.0
20260509101644 53 181 0.0 1.7 0.00 0.00 0.00 65 1003.1
20260509101141 53 170 0.0 0.0 0.00 0.00 0.00 62 1002.8
20260509100639 53 167 0.0 0.0 0.00 0.00 0.00 60 1002.5
20260509100136 53 175 0.0 0.0 0.00 0.00 0.00 59 1002.9
20260509095632 53 172 0.0 1.7 0.00 0.00 0.00 59 1003.1
20260509095130 53 171 0.0 0.0 0.00 0.00 0.00 58 1003.2
20260509094626 53 177 0.0 0.0 0.00 0.00 0.00 57 1003.4
20260509094123 53 184 1.7 1.7 0.00 0.00 0.00 57 1003.4
20260509093622 53 202 0.0 1.7 0.00 0.00 0.00 57 1003.0
20260509093118 54 172 0.0 1.7 0.00 0.00 0.00 56 1003.4
20260509092616 54 152 0.0 0.0 0.00 0.00 0.00 56 1003.3
20260509092115 54 153 1.7 1.7 0.00 0.00 0.00 55 1003.5
20260509091612 54 217 1.7 2.6 0.00 0.00 0.00 54 1003.3
20260509091108 54 154 1.7 2.6 0.00 0.00 0.00 54 1003.1
20260509090606 54 17 5.2 7.8 0.00 0.00 0.00 53 1003.3
20260509085600 54 147 0.9 1.7 0.00 0.00 0.00 52 1003.2
20260509085055 54 181 0.0 0.0 0.00 0.00 0.00 52 1003.0
20260509084553 54 155 0.0 1.7 0.00 0.00 0.00 52 1003.0
20260509084050 54 169 1.7 1.7 0.00 0.00 0.00 51 1002.9
20260509083547 54 158 0.0 0.0 0.00 0.00 0.00 50 1002.8
20260509083044 54 202 3.5 4.3 0.00 0.00 0.00 50 1003.0
20260509082541 54 185 0.9 1.7 0.00 0.00 0.00 49 1002.6